Regional Weather Roundup
Issued by NWS

Home | Current Version | Previous Version | Text Only | Print | Product List | Glossary Off
Versions: 1 2 3 4 5 6 7 8 9 10 11 12 13 14 15 16 17 18 19 20 21 22 23 24 25 26 27 28 29 30 31 32 33 34 35 36 37 38 39 40 41 42 43 44 45 46 47 48 49 50

000
ASUS45 KCYS 220310
RWRWY

WYOMING REGIONAL WEATHER ROUNDUP
NATIONAL WEATHER SERVICE CHEYENNE WY
900 PM MDT THU AUG 21 2014

NOTE:  "FAIR" INDICATES FEW OR NO CLOUDS BELOW 12,000 FEET
WITH NO SIGNIFICANT WEATHER AND/OR OBSTRUCTIONS TO VISIBILITY.

WYZ001-220400-
YELLOWSTONE NATIONAL PARK

CITY           SKY/WX    TMP DP  RH WIND       PRES   REMARKS
LK YELLOWSTONE   N/A     46  42  86 VRB3      30.29R
W YELLOWSTONE  NOT AVBL

$$
WYZ002>013-054>058-071-098>099-220400-
NORTHERN WYOMING

CITY           SKY/WX    TMP DP  RH WIND       PRES   REMARKS
JACKSON        CLOUDY    55  50  82 SW3       30.19R
CODY           PTCLDY    54  48  82 N9        30.15S
GREYBULL       PTCLDY    66  50  56 NW13      30.06R
WORLAND        CLOUDY    67  49  52 N15       30.07R
SHERIDAN       CLOUDY    62  57  83 NW8       30.10R
BUFFALO        CLOUDY    58  55  90 N13G26    30.12R
GILLETTE       MOCLDY    62  55  77 N17       30.07R
HULETT         LGT RAIN  63  55  77 MISG      30.08
NEWCASTLE      FAIR      73  48  40 S13       30.04

$$
WYZ014>020-022>026-101>103-220400-
CENTRAL WYOMING

CITY           SKY/WX    TMP DP  RH WIND       PRES   REMARKS
BIG PINEY      PTCLDY    53  45  74 NE7       30.23R
PINEDALE       PTCLDY    52  45  76 NW3       30.25R
DUBOIS         FAIR      52  39  62 W9        30.21S
LANDER         MOCLDY    65  41  41 SW10      30.10R
RIVERTON       MOCLDY    68  44  42 CALM      30.12R
CASPER         CLOUDY    64  45  49 SW14      30.11R
DOUGLAS        CLOUDY    70  44  39 W18       30.10R

$$
WYZ021-027>030-104>119-220400-
SOUTHERN WYOMING

CITY           SKY/WX    TMP DP  RH WIND       PRES   REMARKS
EVANSTON       MOCLDY    60  42  51 SW5       30.22R
KEMMERER       PTCLDY    59  43  55 CALM      30.23S
FORT BRIDGER   MOCLDY    65  44  46 E3        30.25R
ROCK SPRINGS   MOCLDY    55  48  77 S8        30.23R
DIXON          FAIR      56  49  76 E7        30.29R
RAWLINS        MOCLDY    53  48  83 SW5       30.24S
SARATOGA       FAIR      52  50  93 MISG      30.28F
LARAMIE        CLOUDY    57  44  62 N9        30.27R
CHEYENNE       CLOUDY    68  44  42 SW10      30.18S
TORRINGTON     CLOUDY    71  56  58 E3        30.03S
PINE BLUFFS    RAIN      68  50  52 NW12G24   30.15R

$$



USA.gov is the U.S. government's official web portal to all federal, state and local government web resources and services.